Location: Wiesbaden
(50.0830°N, 8.2500°E)
Time: 22:26:04
(UTC+02:00)

ISS - Pass Details

Date: 14 September 2019
Orbit: 411 x 421 km, 51.6° (Epoch: 19 September)

Event Time Altitude Azimuth Distance (km) Brightness Sun altitude
Exits shadow 06:17:55 10° 250° (WSW) 1,486 -1.7 -7.6°
Maximum altitude 06:19:23 13° 223° (SW) 1,344 -1.7 -7.3°
Drops below altitude 10° 06:20:53 10° 197° (SSW) 1,487 -1.3 -7.1°
Sets 06:23:55 0° 166° (SSE) 2,347 0.1 -6.6°
